W. O. Watson — WDE2805 — position and weather

sailwx.info

Track history (hours):
 
Tides and Currents Weather Stations Pressure Air Temp Water Temp Dewpoint Dewpoint Depression Visibility Wind Speed Wind Dir Waves Ship Positions

W. O. Watson

Owner: Martin Operating Partnership,LP, Vidor, TX. More information available from US FCC via Universal Licensing System and Coast Guard Vessel Documentation Center.

Last reported at 2015-May-06 04:30 UTC. Time now 2015-May-28 20:17 UTC.
Position N 29°32' W 090°52'.
Warning: this ship's position is 22 days out of date.

Length 32 m; draft 2.8 m.

MMSI: 367329860.

Date/timePositionNaut miles runAvg speedWind from/ knotsBaromVisibWave heightAir tempDewpointWater temp
2015-May-06 04:30N 29°32' W 090°52'6 6.1
2015-May-06 03:34N 29°33' W 090°45'0 0.4
2015-May-06 02:33N 29°33' W 090°45'0 0.0
2015-May-06 01:33N 29°33' W 090°45'0 0.0
2015-May-06 00:34N 29°33' W 090°45'0 0.0
2015-May-05 23:34N 29°33' W 090°45'0 0.0
2015-May-05 22:33N 29°33' W 090°45'0 0.0
2015-May-05 21:33N 29°33' W 090°45'0 0.0
2015-May-05 20:34N 29°33' W 090°45'0 0.0
2015-May-05 19:33N 29°33' W 090°45'0 0.0
2015-May-05 18:33N 29°33' W 090°45'0 0.0
2015-May-05 17:34N 29°33' W 090°45'0 0.0
2015-May-05 16:34N 29°33' W 090°45'0 0.0
2015-May-05 15:34N 29°33' W 090°45'0 0.0
2015-May-05 14:34N 29°33' W 090°45'0 0.0
2015-May-05 13:33N 29°33' W 090°45'0 0.0
2015-May-05 12:34N 29°33' W 090°45'0 0.0
2015-May-05 11:33N 29°33' W 090°45'0 0.0
2015-May-05 10:33N 29°33' W 090°45'0 0.0
2015-May-05 09:33N 29°33' W 090°45'0 0.0
2015-May-05 08:34N 29°33' W 090°45'0 0.0
2015-May-05 07:33N 29°33' W 090°45'0 0.0
2015-May-05 06:34N 29°33' W 090°45'0 0.0
2015-May-05 05:33N 29°33' W 090°45'0 0.0
2015-May-05 04:34N 29°33' W 090°45'0 0.0
2015-May-05 03:33N 29°33' W 090°45'0 0.0
2015-May-05 02:34N 29°33' W 090°45'0 0.0
2015-May-05 01:34N 29°33' W 090°45'0 0.0
2015-May-05 00:34N 29°33' W 090°45'0 0.0
2015-May-04 23:33N 29°33' W 090°45'0 0.0
2015-May-04 22:34N 29°33' W 090°45'0 0.0
2015-May-04 21:34N 29°33' W 090°45'0 0.0
2015-May-04 20:34N 29°33' W 090°45'0 0.3
2015-May-04 19:33N 29°33' W 090°45'4 4.1
2015-May-04 18:33N 29°32' W 090°50'5 5.3
2015-May-04 17:33N 29°34' W 090°56'  
2015-Apr-26 20:10N 30°02' W 094°03'0 0.0
2015-Apr-26 16:08N 30°02' W 094°03'0 0.0
2015-Apr-26 12:17N 30°02' W 094°03'0 0.0
2015-Apr-26 11:33N 30°02' W 094°03'0 0.0
2015-Apr-26 10:26N 30°02' W 094°03'0 0.0
2015-Apr-26 09:30N 30°02' W 094°03'0 0.0
2015-Apr-26 08:33N 30°02' W 094°03'  
Track history (hours):
 
Tides and Currents Weather Stations Pressure Air Temp Water Temp Dewpoint Dewpoint Depression Visibility Wind Speed Wind Dir Waves Ship Positions

W. O. Watson

Owner: Martin Operating Partnership,LP, Vidor, TX. More information available from US FCC via Universal Licensing System and Coast Guard Vessel Documentation Center.

Last reported at 2015-May-06 04:30 UTC. Time now 2015-May-28 20:17 UTC.
Position N 29°32' W 090°52'.
Warning: this ship's position is 22 days out of date.

Length 32 m; draft 2.8 m.

MMSI: 367329860.

Date/timePositionNaut miles runAvg speedWind from/ knotsBaromVisibWave heightAir tempDewpointWater temp
2015-May-06 04:30N 29°32' W 090°52'6 6.1
2015-May-06 03:34N 29°33' W 090°45'0 0.4
2015-May-06 02:33N 29°33' W 090°45'0 0.0
2015-May-06 01:33N 29°33' W 090°45'0 0.0
2015-May-06 00:34N 29°33' W 090°45'0 0.0
2015-May-05 23:34N 29°33' W 090°45'0 0.0
2015-May-05 22:33N 29°33' W 090°45'0 0.0
2015-May-05 21:33N 29°33' W 090°45'0 0.0
2015-May-05 20:34N 29°33' W 090°45'0 0.0
2015-May-05 19:33N 29°33' W 090°45'0 0.0
2015-May-05 18:33N 29°33' W 090°45'0 0.0
2015-May-05 17:34N 29°33' W 090°45'0 0.0
2015-May-05 16:34N 29°33' W 090°45'0 0.0
2015-May-05 15:34N 29°33' W 090°45'0 0.0
2015-May-05 14:34N 29°33' W 090°45'0 0.0
2015-May-05 13:33N 29°33' W 090°45'0 0.0
2015-May-05 12:34N 29°33' W 090°45'0 0.0
2015-May-05 11:33N 29°33' W 090°45'0 0.0
2015-May-05 10:33N 29°33' W 090°45'0 0.0
2015-May-05 09:33N 29°33' W 090°45'0 0.0
2015-May-05 08:34N 29°33' W 090°45'0 0.0
2015-May-05 07:33N 29°33' W 090°45'0 0.0
2015-May-05 06:34N 29°33' W 090°45'0 0.0
2015-May-05 05:33N 29°33' W 090°45'0 0.0
2015-May-05 04:34N 29°33' W 090°45'0 0.0
2015-May-05 03:33N 29°33' W 090°45'0 0.0
2015-May-05 02:34N 29°33' W 090°45'0 0.0
2015-May-05 01:34N 29°33' W 090°45'0 0.0
2015-May-05 00:34N 29°33' W 090°45'0 0.0
2015-May-04 23:33N 29°33' W 090°45'0 0.0
2015-May-04 22:34N 29°33' W 090°45'0 0.0
2015-May-04 21:34N 29°33' W 090°45'0 0.0
2015-May-04 20:34N 29°33' W 090°45'0 0.3
2015-May-04 19:33N 29°33' W 090°45'4 4.1
2015-May-04 18:33N 29°32' W 090°50'5 5.3
2015-May-04 17:33N 29°34' W 090°56'  
2015-Apr-26 20:10N 30°02' W 094°03'0 0.0
2015-Apr-26 16:08N 30°02' W 094°03'0 0.0
2015-Apr-26 12:17N 30°02' W 094°03'0 0.0
2015-Apr-26 11:33N 30°02' W 094°03'0 0.0
2015-Apr-26 10:26N 30°02' W 094°03'0 0.0
2015-Apr-26 09:30N 30°02' W 094°03'0 0.0
2015-Apr-26 08:33N 30°02' W 094°03'  

Dump ship's entire track history